Year,Month,Day,Hour,Minute,Value (Times are PST for temperature in C)
2010,08,13,00,00,17.60
2010,08,13,00,01,17.60
2010,08,13,00,02,17.60
2010,08,13,00,03,17.50
2010,08,13,00,04,17.50
2010,08,13,00,05,17.60
2010,08,13,00,06,17.60
2010,08,13,00,07,17.60
2010,08,13,00,08,17.60
2010,08,13,00,09,17.60
2010,08,13,00,10,17.60
2010,08,13,00,11,17.60
2010,08,13,00,12,17.60
2010,08,13,00,13,17.60
2010,08,13,00,14,17.60
2010,08,13,00,15,17.60
2010,08,13,00,16,17.60
2010,08,13,00,17,17.60
2010,08,13,00,18,17.60
2010,08,13,00,19,17.50
2010,08,13,00,20,17.50
2010,08,13,00,21,17.50
2010,08,13,00,22,17.40
2010,08,13,00,23,17.40
2010,08,13,00,24,17.40
2010,08,13,00,25,17.40
2010,08,13,00,26,17.30
2010,08,13,00,27,17.30
2010,08,13,00,28,17.30
2010,08,13,00,29,17.30
2010,08,13,00,30,17.30
2010,08,13,00,31,17.30
2010,08,13,00,32,17.30
2010,08,13,00,33,17.20
2010,08,13,00,34,17.20
2010,08,13,00,35,17.20
2010,08,13,00,36,17.20
2010,08,13,00,37,17.20
2010,08,13,00,38,17.10
2010,08,13,00,39,17.10
2010,08,13,00,40,17.10
2010,08,13,00,41,17.00
2010,08,13,00,42,17.00
2010,08,13,00,43,17.00
2010,08,13,00,44,16.90
2010,08,13,00,45,16.90
2010,08,13,00,46,16.90
2010,08,13,00,47,16.80
2010,08,13,00,48,16.80
2010,08,13,00,49,16.80
2010,08,13,00,50,16.70
2010,08,13,00,51,16.70
2010,08,13,00,52,16.60
2010,08,13,00,53,16.60
2010,08,13,00,54,16.60
2010,08,13,00,55,16.50
2010,08,13,00,56,16.50
2010,08,13,00,57,16.50
2010,08,13,00,58,16.40
2010,08,13,00,59,16.40
2010,08,13,01,00,16.40
2010,08,13,01,01,16.30
2010,08,13,01,02,16.30
2010,08,13,01,03,16.30
2010,08,13,01,04,16.20
2010,08,13,01,05,16.20
2010,08,13,01,06,16.20
2010,08,13,01,07,16.10
2010,08,13,01,08,16.10
2010,08,13,01,09,16.10
2010,08,13,01,10,16.00
2010,08,13,01,11,16.00
2010,08,13,01,12,16.00
2010,08,13,01,13,15.90
2010,08,13,01,14,15.90
2010,08,13,01,15,15.90
2010,08,13,01,16,15.80
2010,08,13,01,17,15.80
2010,08,13,01,18,15.80
2010,08,13,01,19,15.80
2010,08,13,01,20,15.80
2010,08,13,01,21,15.70
2010,08,13,01,22,15.70
2010,08,13,01,23,15.70
2010,08,13,01,24,15.70
2010,08,13,01,25,15.70
2010,08,13,01,26,15.60
2010,08,13,01,27,15.60
2010,08,13,01,28,15.60
2010,08,13,01,29,15.60
2010,08,13,01,30,15.60
2010,08,13,01,31,15.60
2010,08,13,01,32,15.60
2010,08,13,01,33,15.60
2010,08,13,01,34,15.60
2010,08,13,01,35,15.60
2010,08,13,01,36,15.50
2010,08,13,01,37,15.50
2010,08,13,01,38,15.50
2010,08,13,01,39,15.40
2010,08,13,01,40,15.40
2010,08,13,01,41,15.40
2010,08,13,01,42,15.40
2010,08,13,01,43,15.40
2010,08,13,01,44,15.30
2010,08,13,01,45,15.30
2010,08,13,01,46,15.30
2010,08,13,01,47,15.30
2010,08,13,01,48,15.30
2010,08,13,01,49,15.30
2010,08,13,01,50,15.30
2010,08,13,01,51,15.20
2010,08,13,01,52,15.20
2010,08,13,01,53,15.20
2010,08,13,01,54,15.20
2010,08,13,01,55,15.20
2010,08,13,01,56,15.10
2010,08,13,01,57,15.10
2010,08,13,01,58,15.10
2010,08,13,01,59,15.10
2010,08,13,02,00,15.00
2010,08,13,02,01,15.00
2010,08,13,02,02,15.00
2010,08,13,02,03,14.90
2010,08,13,02,04,14.90
2010,08,13,02,05,14.90
2010,08,13,02,06,14.90
2010,08,13,02,07,14.90
2010,08,13,02,08,14.90
2010,08,13,02,09,14.90
2010,08,13,02,10,14.80
2010,08,13,02,11,14.80
2010,08,13,02,12,14.80
2010,08,13,02,13,14.80
2010,08,13,02,14,14.80
2010,08,13,02,15,14.80
2010,08,13,02,16,14.80
2010,08,13,02,17,14.70
2010,08,13,02,18,14.70
2010,08,13,02,19,14.70
2010,08,13,02,20,14.70
2010,08,13,02,21,14.70
2010,08,13,02,22,14.70
2010,08,13,02,23,14.70
2010,08,13,02,24,14.70
2010,08,13,02,25,14.70
2010,08,13,02,26,14.70
2010,08,13,02,27,14.60
2010,08,13,02,28,14.60
2010,08,13,02,29,14.60
2010,08,13,02,30,14.60
2010,08,13,02,31,14.60
2010,08,13,02,32,14.60
2010,08,13,02,33,14.60
2010,08,13,02,34,14.50
2010,08,13,02,35,14.50
2010,08,13,02,36,14.50
2010,08,13,02,37,14.40
2010,08,13,02,38,14.40
2010,08,13,02,39,14.40
2010,08,13,02,40,14.40
2010,08,13,02,41,14.40
2010,08,13,02,42,14.40
2010,08,13,02,43,14.30
2010,08,13,02,44,14.30
2010,08,13,02,45,14.30
2010,08,13,02,46,14.30
2010,08,13,02,47,14.30
2010,08,13,02,48,14.30
2010,08,13,02,49,14.30
2010,08,13,02,50,14.30
2010,08,13,02,51,14.30
2010,08,13,02,52,14.30
2010,08,13,02,53,14.30
2010,08,13,02,54,14.30
2010,08,13,02,55,14.30
2010,08,13,02,56,14.30
2010,08,13,02,57,14.20
2010,08,13,02,58,14.20
2010,08,13,02,59,14.20
2010,08,13,03,00,14.20
2010,08,13,03,01,14.20
2010,08,13,03,06,14.40
2010,08,13,03,07,14.50
2010,08,13,03,08,14.60
2010,08,13,03,09,14.80
2010,08,13,03,10,14.90
2010,08,13,03,11,15.10
2010,08,13,03,12,15.20
2010,08,13,03,13,15.30
2010,08,13,03,14,15.30
2010,08,13,03,15,15.40
2010,08,13,03,16,15.40
2010,08,13,03,17,15.50
2010,08,13,03,18,15.60
2010,08,13,03,19,15.60
2010,08,13,03,20,15.60
2010,08,13,03,21,15.70
2010,08,13,03,22,15.70
2010,08,13,03,23,15.70
2010,08,13,03,24,15.70
2010,08,13,03,25,15.70
2010,08,13,03,26,15.60
2010,08,13,03,27,15.60
2010,08,13,03,28,15.60
2010,08,13,03,29,15.60
2010,08,13,03,30,15.50
2010,08,13,03,31,15.40
2010,08,13,03,32,15.40
2010,08,13,03,33,15.40
2010,08,13,03,34,15.30
2010,08,13,03,35,15.30
2010,08,13,03,36,15.30
2010,08,13,03,37,15.30
2010,08,13,03,38,15.20
2010,08,13,03,39,15.20
2010,08,13,03,40,15.20
2010,08,13,03,41,15.10
2010,08,13,03,42,15.10
2010,08,13,03,43,15.10
2010,08,13,03,44,15.00
2010,08,13,03,45,15.00
2010,08,13,03,46,14.90
2010,08,13,03,47,14.90
2010,08,13,03,48,14.90
2010,08,13,03,49,14.90
2010,08,13,03,50,14.80
2010,08,13,03,51,14.80
2010,08,13,03,52,14.80
2010,08,13,03,53,14.80
2010,08,13,03,54,14.80
2010,08,13,03,55,14.80
2010,08,13,03,56,14.80
2010,08,13,03,57,14.80
2010,08,13,03,58,14.80
2010,08,13,03,59,14.90
2010,08,13,04,00,14.90
2010,08,13,04,01,15.00
2010,08,13,04,02,15.10
2010,08,13,04,03,15.10
2010,08,13,04,04,15.10
2010,08,13,04,05,15.10
2010,08,13,04,06,15.00
2010,08,13,04,07,15.00
2010,08,13,04,08,15.00
2010,08,13,04,09,14.90
2010,08,13,04,10,14.90
2010,08,13,04,11,14.90
2010,08,13,04,12,14.80
2010,08,13,04,13,14.80
2010,08,13,04,14,14.80
2010,08,13,04,15,14.80
2010,08,13,04,16,14.70
2010,08,13,04,17,14.70
2010,08,13,04,18,14.70
2010,08,13,04,19,14.60
2010,08,13,04,20,14.60
2010,08,13,04,21,14.60
2010,08,13,04,22,14.60
2010,08,13,04,23,14.50
2010,08,13,04,24,14.50
2010,08,13,04,25,14.50
2010,08,13,04,26,14.40
2010,08,13,04,27,14.40
2010,08,13,04,28,14.40
2010,08,13,04,29,14.40
2010,08,13,04,30,14.40
2010,08,13,04,31,14.30
2010,08,13,04,32,14.30
2010,08,13,04,33,14.30
2010,08,13,04,34,14.30
2010,08,13,04,35,14.30
2010,08,13,04,36,14.20
2010,08,13,04,37,14.20
2010,08,13,04,38,14.20
2010,08,13,04,39,14.20
2010,08,13,04,40,14.10
2010,08,13,04,41,14.10
2010,08,13,04,42,14.10
2010,08,13,04,43,14.10
2010,08,13,04,44,14.00
2010,08,13,04,45,14.00
2010,08,13,04,46,14.00
2010,08,13,04,47,13.90
2010,08,13,04,48,13.90
2010,08,13,04,49,13.90
2010,08,13,04,50,13.90
2010,08,13,04,51,13.80
2010,08,13,04,52,13.80
2010,08,13,04,53,13.80
2010,08,13,04,54,13.80
2010,08,13,04,55,13.80
2010,08,13,04,56,13.70
2010,08,13,04,57,13.70
2010,08,13,04,58,13.70
2010,08,13,04,59,13.70
2010,08,13,05,00,13.70
2010,08,13,05,01,13.70
2010,08,13,05,02,13.70
2010,08,13,05,03,13.70
2010,08,13,05,04,13.60
2010,08,13,05,05,13.60
2010,08,13,05,06,13.60
2010,08,13,05,07,13.60
2010,08,13,05,08,13.50
2010,08,13,05,09,13.50
2010,08,13,05,10,13.50
2010,08,13,05,11,13.50
2010,08,13,05,12,13.40
2010,08,13,05,13,13.40
2010,08,13,05,14,13.40
2010,08,13,05,15,13.40
2010,08,13,05,16,13.40
2010,08,13,05,17,13.40
2010,08,13,05,18,13.40
2010,08,13,05,19,13.40
2010,08,13,05,20,13.40
2010,08,13,05,21,13.40
2010,08,13,05,22,13.40
2010,08,13,05,23,13.40
2010,08,13,05,24,13.40
2010,08,13,05,25,13.40
2010,08,13,05,26,13.30
2010,08,13,05,27,13.30
2010,08,13,05,28,13.30
2010,08,13,05,29,13.30
2010,08,13,05,30,13.30
2010,08,13,05,31,13.30
2010,08,13,05,32,13.30
2010,08,13,05,33,13.30
2010,08,13,05,34,13.30
2010,08,13,05,35,13.30
2010,08,13,05,36,13.30
2010,08,13,05,37,13.30
2010,08,13,05,38,13.30
2010,08,13,05,39,13.30
2010,08,13,05,40,13.30
2010,08,13,05,41,13.30
2010,08,13,05,42,13.30
2010,08,13,05,43,13.30
2010,08,13,05,44,13.30
2010,08,13,05,45,13.30
2010,08,13,05,46,13.30
2010,08,13,05,47,13.30
2010,08,13,05,48,13.30
2010,08,13,05,49,13.20
2010,08,13,05,50,13.20
2010,08,13,05,51,13.20
2010,08,13,05,52,13.20
2010,08,13,05,53,13.20
2010,08,13,05,54,13.20
2010,08,13,05,55,13.20
2010,08,13,05,56,13.20
2010,08,13,05,57,13.20
2010,08,13,05,58,13.10
2010,08,13,05,59,13.10
2010,08,13,06,00,13.10
2010,08,13,06,01,13.10
2010,08,13,06,02,13.10
2010,08,13,06,03,13.10
2010,08,13,06,04,13.10
2010,08,13,06,05,13.10
2010,08,13,06,06,13.10
2010,08,13,06,07,13.20
2010,08,13,06,08,13.20
2010,08,13,06,09,13.20
2010,08,13,06,10,13.20
2010,08,13,06,11,13.20
2010,08,13,06,12,13.20
2010,08,13,06,13,13.10
2010,08,13,06,14,13.10
2010,08,13,06,15,13.10
2010,08,13,06,16,13.10
2010,08,13,06,17,13.10
2010,08,13,06,18,13.10
2010,08,13,06,19,13.10
2010,08,13,06,20,13.10
2010,08,13,06,21,13.10
2010,08,13,06,22,13.10
2010,08,13,06,23,13.10
2010,08,13,06,24,13.10
2010,08,13,06,25,13.10
2010,08,13,06,26,13.10
2010,08,13,06,27,13.00
2010,08,13,06,28,13.00
2010,08,13,06,29,13.00
2010,08,13,06,30,13.00
2010,08,13,06,31,13.00
2010,08,13,06,32,13.00
2010,08,13,06,33,13.00
2010,08,13,06,34,13.00
2010,08,13,06,35,13.00
2010,08,13,06,36,13.00
2010,08,13,06,37,12.90
2010,08,13,06,38,12.90
2010,08,13,06,39,12.90
2010,08,13,06,40,12.90
2010,08,13,06,41,12.90
2010,08,13,06,42,12.90
2010,08,13,06,43,12.90
2010,08,13,06,44,12.90
2010,08,13,06,45,12.90
2010,08,13,06,46,12.90
2010,08,13,06,47,12.90
2010,08,13,06,48,12.90
2010,08,13,06,49,12.90
2010,08,13,06,50,12.90
2010,08,13,06,51,12.90
2010,08,13,06,52,13.00
2010,08,13,06,53,13.00
2010,08,13,06,54,13.00
2010,08,13,06,55,13.00
2010,08,13,06,56,13.00
2010,08,13,06,57,13.10
2010,08,13,06,58,13.10
2010,08,13,06,59,13.10
2010,08,13,07,00,13.10
2010,08,13,07,01,13.10
2010,08,13,07,02,13.20
2010,08,13,07,03,13.20
2010,08,13,07,04,13.20
2010,08,13,07,05,13.20
2010,08,13,07,06,13.20
2010,08,13,07,07,13.30
2010,08,13,07,08,13.30
2010,08,13,07,09,13.30
2010,08,13,07,10,13.30
2010,08,13,07,11,13.30
2010,08,13,07,12,13.40
2010,08,13,07,13,13.40
2010,08,13,07,14,13.40
2010,08,13,07,15,13.50
2010,08,13,07,16,13.50
2010,08,13,07,17,13.50
2010,08,13,07,18,13.60
2010,08,13,07,19,13.60
2010,08,13,07,20,13.60
2010,08,13,07,21,13.60
2010,08,13,07,22,13.70
2010,08,13,07,23,13.80
2010,08,13,07,24,13.90
2010,08,13,07,25,13.90
2010,08,13,07,26,14.00
2010,08,13,07,27,14.10
2010,08,13,07,28,14.10
2010,08,13,07,29,14.20
2010,08,13,07,30,14.20
2010,08,13,07,31,14.20
2010,08,13,07,32,14.20
2010,08,13,07,33,14.30
2010,08,13,07,34,14.30
2010,08,13,07,35,14.30
2010,08,13,07,36,14.30
2010,08,13,07,37,14.40
2010,08,13,07,38,14.40
2010,08,13,07,39,14.40
2010,08,13,07,40,14.40
2010,08,13,07,41,14.40
2010,08,13,07,42,14.50
2010,08,13,07,43,14.60
2010,08,13,07,44,14.60
2010,08,13,07,45,14.70
2010,08,13,07,46,14.90
2010,08,13,07,47,15.00
2010,08,13,07,48,15.10
2010,08,13,07,49,15.20
2010,08,13,07,50,15.30
2010,08,13,07,51,15.40
2010,08,13,07,52,15.50
2010,08,13,07,53,15.70
2010,08,13,07,54,15.80
2010,08,13,07,55,15.90
2010,08,13,07,56,16.00
2010,08,13,07,57,16.10
2010,08,13,07,58,16.20
2010,08,13,07,59,16.40
2010,08,13,08,00,16.50
2010,08,13,08,01,16.60
2010,08,13,08,02,16.70
2010,08,13,08,03,16.80
2010,08,13,08,04,16.90
2010,08,13,08,05,16.90
2010,08,13,08,06,17.00
2010,08,13,08,07,17.10
2010,08,13,08,08,17.10
2010,08,13,08,09,17.20
2010,08,13,08,10,17.20
2010,08,13,08,11,17.30
2010,08,13,08,12,17.30
2010,08,13,08,13,17.40
2010,08,13,08,14,17.40
2010,08,13,08,15,17.50
2010,08,13,08,16,17.50
2010,08,13,08,17,17.60
2010,08,13,08,18,17.60
2010,08,13,08,19,17.70
2010,08,13,08,20,17.70
2010,08,13,08,21,17.70
2010,08,13,08,22,17.80
2010,08,13,08,23,17.80
2010,08,13,08,24,17.80
2010,08,13,08,25,17.80
2010,08,13,08,26,17.90
2010,08,13,08,27,17.90
2010,08,13,08,28,17.90
2010,08,13,08,29,18.00
2010,08,13,08,30,18.00
2010,08,13,08,31,18.10
2010,08,13,08,32,18.10
2010,08,13,08,33,18.20
2010,08,13,08,34,18.20
2010,08,13,08,35,18.30
2010,08,13,08,36,18.30
2010,08,13,08,37,18.40
2010,08,13,08,38,18.40
2010,08,13,08,39,18.50
2010,08,13,08,40,18.50
2010,08,13,08,41,18.60
2010,08,13,08,42,18.60
2010,08,13,08,43,18.70
2010,08,13,08,44,18.70
2010,08,13,08,45,18.80
2010,08,13,08,46,18.80
2010,08,13,08,47,18.90
2010,08,13,08,48,18.90
2010,08,13,08,49,19.00
2010,08,13,08,50,19.00
2010,08,13,08,51,19.00
2010,08,13,08,52,19.10
2010,08,13,08,53,19.10
2010,08,13,08,54,19.10
2010,08,13,08,55,19.10
2010,08,13,08,56,19.20
2010,08,13,08,57,19.20
2010,08,13,08,58,19.20
2010,08,13,08,59,19.20
2010,08,13,09,00,19.30
2010,08,13,09,01,19.30
2010,08,13,09,02,19.30
2010,08,13,09,03,19.30
2010,08,13,09,04,19.40
2010,08,13,09,05,19.40
2010,08,13,09,06,19.40
2010,08,13,09,07,19.50
2010,08,13,09,08,19.50
2010,08,13,09,09,19.50
2010,08,13,09,10,19.50
2010,08,13,09,11,19.60
2010,08,13,09,12,19.60
2010,08,13,09,13,19.60
2010,08,13,09,14,19.70
2010,08,13,09,15,19.70
2010,08,13,09,16,19.80
2010,08,13,09,17,19.80
2010,08,13,09,18,19.90
2010,08,13,09,19,19.90
2010,08,13,09,20,20.00
2010,08,13,09,21,20.00
2010,08,13,09,22,20.10
2010,08,13,09,23,20.10
2010,08,13,09,24,20.20
2010,08,13,09,25,20.20
2010,08,13,09,26,20.20
2010,08,13,09,27,20.20
2010,08,13,09,28,20.20
2010,08,13,09,29,20.30
2010,08,13,09,30,20.40
2010,08,13,09,31,20.40
2010,08,13,09,32,20.50
2010,08,13,09,33,20.60
2010,08,13,09,34,20.60
2010,08,13,09,35,20.70
2010,08,13,09,36,20.70
2010,08,13,09,37,20.70
2010,08,13,09,38,20.80
2010,08,13,09,39,20.80
2010,08,13,09,40,20.80
2010,08,13,09,41,20.80
2010,08,13,09,42,20.80
2010,08,13,09,43,20.80
2010,08,13,09,44,20.80
2010,08,13,09,45,20.90
2010,08,13,09,46,20.90
2010,08,13,09,47,20.90
2010,08,13,09,48,20.90
2010,08,13,09,49,20.90
2010,08,13,09,50,20.90
2010,08,13,09,51,21.00
2010,08,13,09,52,21.10
2010,08,13,09,53,21.10
2010,08,13,09,54,21.20
2010,08,13,09,55,21.20
2010,08,13,09,56,21.20
2010,08,13,09,57,21.20
2010,08,13,09,58,21.20
2010,08,13,09,59,21.10
2010,08,13,10,00,21.10
2010,08,13,10,01,21.10
2010,08,13,10,02,21.10
2010,08,13,10,03,21.10
2010,08,13,10,04,21.10
2010,08,13,10,05,21.10
2010,08,13,10,06,21.10
2010,08,13,10,07,21.10
2010,08,13,10,08,21.10
2010,08,13,10,09,21.10
2010,08,13,10,10,21.10
2010,08,13,10,11,21.10
2010,08,13,10,12,21.10
2010,08,13,10,13,21.20
2010,08,13,10,14,21.20
2010,08,13,10,15,21.30
2010,08,13,10,16,21.30
2010,08,13,10,17,21.30
2010,08,13,10,18,21.30
2010,08,13,10,19,21.20
2010,08,13,10,20,21.30
2010,08,13,10,21,21.30
2010,08,13,10,22,21.30
2010,08,13,10,23,21.30
2010,08,13,10,24,21.30
2010,08,13,10,25,21.40
2010,08,13,10,26,21.50
2010,08,13,10,27,21.50
2010,08,13,10,28,21.50
2010,08,13,10,29,21.60
2010,08,13,10,30,21.60
2010,08,13,10,31,21.60
2010,08,13,10,32,21.70
2010,08,13,10,33,21.70
2010,08,13,10,34,21.80
2010,08,13,10,35,21.80
2010,08,13,10,36,21.90
2010,08,13,10,37,22.00
2010,08,13,10,38,22.10
2010,08,13,10,39,22.10
2010,08,13,10,40,22.20
2010,08,13,10,41,22.20
2010,08,13,10,42,22.20
2010,08,13,10,43,22.20
2010,08,13,10,44,22.20
2010,08,13,10,45,22.30
2010,08,13,10,46,22.30
2010,08,13,10,47,22.30
2010,08,13,10,48,22.40
2010,08,13,10,49,22.50
2010,08,13,10,50,22.50
2010,08,13,10,51,22.50
2010,08,13,10,52,22.50
2010,08,13,10,53,22.60
2010,08,13,10,54,22.60
2010,08,13,10,55,22.70
2010,08,13,10,56,22.70
2010,08,13,10,57,22.70
2010,08,13,10,58,22.70
2010,08,13,10,59,22.80
2010,08,13,11,00,22.80
2010,08,13,11,01,22.80
2010,08,13,11,02,22.80
2010,08,13,11,03,22.80
2010,08,13,11,04,22.70
2010,08,13,11,05,22.70
2010,08,13,11,06,22.80
2010,08,13,11,07,22.80
2010,08,13,11,08,22.80
2010,08,13,11,09,22.80
2010,08,13,11,10,22.80
2010,08,13,11,11,22.90
2010,08,13,11,12,22.90
2010,08,13,11,13,23.00
2010,08,13,11,14,23.10
2010,08,13,11,15,23.10
2010,08,13,11,16,23.20
2010,08,13,11,17,23.20
2010,08,13,11,18,23.20
2010,08,13,11,19,23.20
2010,08,13,11,20,23.20
2010,08,13,11,21,23.20
2010,08,13,11,22,23.20
2010,08,13,11,23,23.10
2010,08,13,11,24,23.00
2010,08,13,11,25,22.90
2010,08,13,11,26,22.80
2010,08,13,11,27,22.70
2010,08,13,11,28,22.60
2010,08,13,11,29,22.60
2010,08,13,11,30,22.60
2010,08,13,11,31,22.60
2010,08,13,11,32,22.60
2010,08,13,11,33,22.70
2010,08,13,11,34,22.80
2010,08,13,11,35,22.80
2010,08,13,11,36,22.80
2010,08,13,11,37,22.80
2010,08,13,11,38,22.80
2010,08,13,11,39,22.80
2010,08,13,11,40,22.80
2010,08,13,11,41,22.80
2010,08,13,11,42,22.80
2010,08,13,11,43,22.80
2010,08,13,11,44,22.80
2010,08,13,11,45,22.80
2010,08,13,11,46,22.80
2010,08,13,11,47,22.90
2010,08,13,11,48,22.90
2010,08,13,11,49,22.90
2010,08,13,11,50,22.90
2010,08,13,11,51,22.90
2010,08,13,11,52,22.90
2010,08,13,11,53,23.00
2010,08,13,11,54,23.00
2010,08,13,11,55,23.10
2010,08,13,11,56,23.10
2010,08,13,11,57,23.10
2010,08,13,11,58,23.20
2010,08,13,11,59,23.20
2010,08,13,12,00,23.20
2010,08,13,12,01,23.20
2010,08,13,12,02,23.10
2010,08,13,12,03,23.10
2010,08,13,12,04,23.10
2010,08,13,12,05,23.10
2010,08,13,12,06,23.10
2010,08,13,12,07,23.10
2010,08,13,12,08,23.10
2010,08,13,12,09,23.10
2010,08,13,12,10,23.10
2010,08,13,12,11,23.20
2010,08,13,12,12,23.30
2010,08,13,12,13,23.40
2010,08,13,12,14,23.40
2010,08,13,12,15,23.50
2010,08,13,12,16,23.50
2010,08,13,12,17,23.60
2010,08,13,12,18,23.60
2010,08,13,12,19,23.70
2010,08,13,12,20,23.70
2010,08,13,12,21,23.70
2010,08,13,12,22,23.70
2010,08,13,12,23,23.80
2010,08,13,12,24,23.70
2010,08,13,12,25,23.70
2010,08,13,12,26,23.70
2010,08,13,12,27,23.70
2010,08,13,12,28,23.70
2010,08,13,12,29,23.80
2010,08,13,12,30,23.80
2010,08,13,12,31,23.90
2010,08,13,12,32,24.00
2010,08,13,12,33,24.10
2010,08,13,12,34,24.10
2010,08,13,12,35,24.20
2010,08,13,12,36,24.10
2010,08,13,12,37,24.10
2010,08,13,12,38,24.10
2010,08,13,12,39,24.20
2010,08,13,12,40,24.10
2010,08,13,12,41,24.10
2010,08,13,12,42,24.00
2010,08,13,12,43,23.90
2010,08,13,12,44,23.90
2010,08,13,12,45,23.90
2010,08,13,12,46,24.00
2010,08,13,12,47,24.10
2010,08,13,12,48,24.20
2010,08,13,12,49,24.30
2010,08,13,12,50,24.40
2010,08,13,12,51,24.50
2010,08,13,12,52,24.60
2010,08,13,12,53,24.70
2010,08,13,12,54,24.80
2010,08,13,12,55,24.80
2010,08,13,12,56,24.80
2010,08,13,12,57,24.80
2010,08,13,12,58,24.80
2010,08,13,12,59,24.80
2010,08,13,13,00,24.80
2010,08,13,13,01,24.80
2010,08,13,13,02,24.80
2010,08,13,13,03,24.80
2010,08,13,13,04,24.80
2010,08,13,13,05,24.70
2010,08,13,13,06,24.60
2010,08,13,13,07,24.60
2010,08,13,13,08,24.60
2010,08,13,13,09,24.60
2010,08,13,13,10,24.60
2010,08,13,13,11,24.60
2010,08,13,13,12,24.60
2010,08,13,13,13,24.60
2010,08,13,13,14,24.60
2010,08,13,13,15,24.70
2010,08,13,13,16,24.70
2010,08,13,13,17,24.70
2010,08,13,13,18,24.70
2010,08,13,13,19,24.60
2010,08,13,13,20,24.60
2010,08,13,13,21,24.60
2010,08,13,13,22,24.70
2010,08,13,13,23,24.80
2010,08,13,13,24,24.80
2010,08,13,13,25,24.90
2010,08,13,13,26,25.00
2010,08,13,13,27,25.00
2010,08,13,13,28,24.90
2010,08,13,13,29,24.90
2010,08,13,13,30,24.70
2010,08,13,13,31,24.60
2010,08,13,13,32,24.60
2010,08,13,13,33,24.60
2010,08,13,13,34,24.60
2010,08,13,13,35,24.60
2010,08,13,13,36,24.60
2010,08,13,13,37,24.50
2010,08,13,13,38,24.50
2010,08,13,13,39,24.50
2010,08,13,13,40,24.50
2010,08,13,13,41,24.50
2010,08,13,13,42,24.50
2010,08,13,13,43,24.60
2010,08,13,13,44,24.70
2010,08,13,13,45,24.80
2010,08,13,13,46,24.90
2010,08,13,13,47,25.00
2010,08,13,13,48,25.00
2010,08,13,13,49,25.00
2010,08,13,13,50,24.90
2010,08,13,13,51,24.80
2010,08,13,13,52,24.70
2010,08,13,13,53,24.60
2010,08,13,13,54,24.60
2010,08,13,13,55,24.70
2010,08,13,13,56,24.80
2010,08,13,13,57,24.80
2010,08,13,13,58,24.90
2010,08,13,13,59,24.90
2010,08,13,14,00,24.90
2010,08,13,14,01,24.90
2010,08,13,14,02,24.90
2010,08,13,14,03,24.90
2010,08,13,14,04,25.00
2010,08,13,14,05,25.00
2010,08,13,14,06,25.00
2010,08,13,14,07,25.00
2010,08,13,14,08,25.10
2010,08,13,14,09,25.10
2010,08,13,14,10,25.20
2010,08,13,14,11,25.20
2010,08,13,14,12,25.20
2010,08,13,14,13,25.20
2010,08,13,14,14,25.30
2010,08,13,14,15,25.40
2010,08,13,14,16,25.40
2010,08,13,14,17,25.50
2010,08,13,14,18,25.60
2010,08,13,14,19,25.70
2010,08,13,14,20,25.60
2010,08,13,14,21,25.60
2010,08,13,14,22,25.60
2010,08,13,14,23,25.70
2010,08,13,14,24,25.70
2010,08,13,14,25,25.70
2010,08,13,14,26,25.70
2010,08,13,14,27,25.70
2010,08,13,14,28,25.80
2010,08,13,14,29,25.80
2010,08,13,14,30,25.90
2010,08,13,14,31,26.00
2010,08,13,14,32,26.00
2010,08,13,14,33,26.00
2010,08,13,14,34,26.00
2010,08,13,14,35,26.00
2010,08,13,14,36,26.10
2010,08,13,14,37,26.20
2010,08,13,14,38,26.20
2010,08,13,14,39,26.30
2010,08,13,14,40,26.50
2010,08,13,14,41,26.60
2010,08,13,14,42,26.70
2010,08,13,14,43,26.80
2010,08,13,14,44,26.90
2010,08,13,14,45,26.90
2010,08,13,14,46,26.90
2010,08,13,14,47,26.80
2010,08,13,14,48,26.80
2010,08,13,14,49,26.80
2010,08,13,14,50,26.80
2010,08,13,14,51,26.80
2010,08,13,14,52,26.90
2010,08,13,14,53,27.00
2010,08,13,14,54,27.10
2010,08,13,14,55,27.20
2010,08,13,14,56,27.30
2010,08,13,14,57,27.30
2010,08,13,14,58,27.30
2010,08,13,14,59,27.30
2010,08,13,15,00,27.30
2010,08,13,15,01,27.40
2010,08,13,15,02,27.50
2010,08,13,15,03,27.50
2010,08,13,15,04,27.50
2010,08,13,15,05,27.60
2010,08,13,15,06,27.50
2010,08,13,15,07,27.60
2010,08,13,15,08,27.60
2010,08,13,15,09,27.70
2010,08,13,15,10,27.80
2010,08,13,15,11,27.90
2010,08,13,15,12,28.10
2010,08,13,15,13,28.20
2010,08,13,15,14,28.40
2010,08,13,15,15,28.40
2010,08,13,15,16,28.40
2010,08,13,15,17,28.50
2010,08,13,15,18,28.60
2010,08,13,15,19,28.60
2010,08,13,15,20,28.70
2010,08,13,15,21,28.80
2010,08,13,15,22,28.80
2010,08,13,15,23,28.70
2010,08,13,15,24,28.80
2010,08,13,15,25,28.70
2010,08,13,15,26,28.70
2010,08,13,15,27,28.70
2010,08,13,15,28,28.80
2010,08,13,15,29,28.80
2010,08,13,15,30,28.80
2010,08,13,15,31,28.80
2010,08,13,15,32,28.80
2010,08,13,15,33,28.80
2010,08,13,15,34,28.70
2010,08,13,15,35,28.70
2010,08,13,15,36,28.80
2010,08,13,15,37,29.00
2010,08,13,15,38,29.10
2010,08,13,15,39,29.20
2010,08,13,15,40,29.20
2010,08,13,15,41,29.20
2010,08,13,15,42,29.30
2010,08,13,15,43,29.30
2010,08,13,15,44,29.30
2010,08,13,15,45,29.30
2010,08,13,15,46,29.40
2010,08,13,15,47,29.60
2010,08,13,15,48,29.60
2010,08,13,15,49,29.60
2010,08,13,15,50,29.70
2010,08,13,15,51,29.80
2010,08,13,15,52,29.80
2010,08,13,15,53,29.80
2010,08,13,15,54,29.80
2010,08,13,15,55,29.80
2010,08,13,15,56,29.70
2010,08,13,15,57,29.70
2010,08,13,15,58,29.80
2010,08,13,15,59,29.80
2010,08,13,16,00,29.90
2010,08,13,16,01,29.90
2010,08,13,16,02,29.90
2010,08,13,16,03,29.90
2010,08,13,16,04,29.90
2010,08,13,16,05,29.90
2010,08,13,16,06,29.90
2010,08,13,16,07,30.00
2010,08,13,16,08,30.00
2010,08,13,16,09,29.90
2010,08,13,16,10,29.90
2010,08,13,16,11,29.90
2010,08,13,16,12,30.00
2010,08,13,16,13,30.10
2010,08,13,16,14,30.20
2010,08,13,16,15,30.30
2010,08,13,16,16,30.30
2010,08,13,16,17,30.20
2010,08,13,16,18,30.10
2010,08,13,16,19,30.00
2010,08,13,16,20,30.00
2010,08,13,16,21,30.00
2010,08,13,16,22,30.10
2010,08,13,16,23,30.10
2010,08,13,16,24,30.10
2010,08,13,16,25,30.20
2010,08,13,16,26,30.30
2010,08,13,16,27,30.30
2010,08,13,16,28,30.30
2010,08,13,16,29,30.50
2010,08,13,16,30,30.60
2010,08,13,16,31,30.60
2010,08,13,16,32,30.70
2010,08,13,16,33,30.70
2010,08,13,16,34,30.60
2010,08,13,16,35,30.50
2010,08,13,16,36,30.40
2010,08,13,16,37,30.40
2010,08,13,16,38,30.30
2010,08,13,16,39,30.30
2010,08,13,16,40,30.20
2010,08,13,16,41,30.10
2010,08,13,16,42,30.10
2010,08,13,16,43,30.00
2010,08,13,16,44,30.00
2010,08,13,16,45,29.90
2010,08,13,16,46,30.00
2010,08,13,16,47,30.00
2010,08,13,16,48,30.10
2010,08,13,16,49,30.00
2010,08,13,16,50,30.10
2010,08,13,16,51,30.00
2010,08,13,16,52,30.00
2010,08,13,16,53,29.90
2010,08,13,16,54,29.90
2010,08,13,16,55,29.90
2010,08,13,16,56,29.90
2010,08,13,16,57,29.90
2010,08,13,16,58,30.00
2010,08,13,16,59,30.10
2010,08,13,17,00,30.10
2010,08,13,17,01,30.10
2010,08,13,17,02,30.10
2010,08,13,17,03,30.00
2010,08,13,17,04,30.00
2010,08,13,17,05,29.90
2010,08,13,17,06,29.90
2010,08,13,17,07,29.90
2010,08,13,17,08,29.90
2010,08,13,17,09,29.90
2010,08,13,17,10,29.80
2010,08,13,17,11,29.80
2010,08,13,17,12,29.80
2010,08,13,17,13,29.90
2010,08,13,17,14,29.90
2010,08,13,17,15,29.90
2010,08,13,17,16,29.90
2010,08,13,17,17,29.90
2010,08,13,17,18,29.90
2010,08,13,17,19,29.90
2010,08,13,17,20,29.90
2010,08,13,17,21,29.90
2010,08,13,17,22,29.90
2010,08,13,17,23,29.90